Regional Weather Roundup
Issued by NWS

Home | Current Version | Previous Version | Text Only | Print | Product List | Glossary Off
Versions: 1 2 3 4 5 6 7 8 9 10 11 12 13 14 15 16 17 18 19 20 21 22 23 24 25 26 27 28 29 30 31 32 33 34 35 36 37 38 39 40 41 42 43 44 45 46 47 48 49 50

000
ASUS43 KFSD 060302
RWRSD

WEATHER ROUNDUP FOR SOUTH DAKOTA
NATIONAL WEATHER SERVICE SIOUX FALLS SD
900 PM CST FRI FEB 05 2016

NOTE: "FAIR" INDICATES FEW OR NO CLOUDS BELOW 12,000 FEET WITH NO
SIGNIFICANT WEATHER AND/OR OBSTRUCTIONS TO VISIBILITY.


SDZ001>005-009-010-012>017-060400-
NORTHWEST AND NORTH CENTRAL SOUTH DAKOTA

CITY           SKY/WX    TMP DP  RH WIND       PRES   REMARKS
BUFFALO          N/A     30  21  69 W10       30.02F WCI  21
FAITH            N/A     31  21  66 SW10      30.11F WCI  22
MOBRIDGE       CLEAR     29  21  72 SE7       30.09F WCI  22
$$

SDZ012>016-024>037-041>051-057-063-072>074-060400-
SOUTHWEST AND SOUTH CENTRAL SOUTH DAKOTA

CITY           SKY/WX    TMP DP  RH WIND       PRES   REMARKS
RAPID CTY ARPT CLEAR     23  18  81 CALM      30.16S
PIERRE         CLEAR     30  24  78 SW8       30.16F WCI  22
CUSTER         CLOUDY    24  14  65 W14G22    30.13S WCI  12
ELLSWORTH AFB  CLEAR     27  18  70 W7        30.14F WCI  19
PHILIP         CLEAR     27  23  85 W12       30.18R WCI  17
PINE RIDGE     CLEAR     28  19  69 W6        30.21S WCI  22
WINNER         FAIR      29  22  75 SW7       30.20F WCI  22
$$

SDZ004>011-016>023-039-040-060400-
NORTHEAST SOUTH DAKOTA

CITY           SKY/WX    TMP DP  RH WIND       PRES   REMARKS
ABERDEEN       CLEAR     23  18  81 S5        30.15F WCI  17
WATERTOWN      FOG       18  15  88 S5        30.14F VSB 1/4 WCI  11
BROOKINGS      FOG       20  19  96 SW3       30.17R VSB 1/2
SISSETON         N/A     20  17  88 W5        30.15S WCI  13
$$

SDZ017-020-022-023-036>040-048>070-060400-
SOUTHEAST SOUTH DAKOTA

CITY           SKY/WX    TMP DP  RH WIND       PRES   REMARKS
SIOUX FALLS    CLOUDY    27  25  92 NW3       30.20S
HURON          CLEAR     26  23  88 SW8       30.19S WCI  18
MITCHELL       CLEAR     28  27  96 SW6       30.21S WCI  22
YANKTON        PTCLDY    30  25  80 NW6       30.23S WCI  24
$$

ABBREVIATIONS USED IN REMARKS
   TC - TEMPERATURE IN CELSIUS
  WCI - WIND CHILL INDEX
   HX - HEAT INDEX
  VSB - VISIBILITY




USA.gov is the U.S. government's official web portal to all federal, state and local government web resources and services.